PGT52GR LTFJ-LFPO

Flight info

Callsign PGT52GR
Flight time N/A
Altitude 36000
Route VADEN DCT BAKLO DCT ROVAM DCT DOLAP DCT ADOSA DCT PUNSA DCT UNKIR DCT DJL
Aircraft A21N/M-SDE3FGHIRWY/LB1

Departure

Time 2026-04-28 10:49
Airport Istanbul Sabiha Gökçen International Airport (LTFJ)

Arrival

Time N/A
Airport Paris-Orly Airport (LFPO)
Time Latitude Longitude Altitude Speed Heading
2026-04-28 10:19 40.90321 29.31322 320 ft 0 kts 154°
2026-04-28 10:35 40.90329 29.31318 320 ft 2 kts 154°
2026-04-28 10:35 40.90342 29.31309 320 ft 2 kts 154°
2026-04-28 10:36 40.90356 29.31301 320 ft 2 kts 154°
2026-04-28 10:36 40.90369 29.31292 320 ft 2 kts 156°
2026-04-28 10:36 40.90384 29.31290 320 ft 2 kts 197°
2026-04-28 10:36 40.90398 29.31301 320 ft 2 kts 229°
2026-04-28 10:37 40.90405 29.31318 320 ft 1 kts 250°
2026-04-28 10:37 40.90406 29.31322 320 ft 0 kts 248°
2026-04-28 10:41 40.90405 29.31321 320 ft 0 kts 246°
2026-04-28 10:42 40.90396 29.31296 320 ft 4 kts 244°
2026-04-28 10:42 40.90374 29.31237 320 ft 9 kts 244°
2026-04-28 10:42 40.90341 29.31147 320 ft 12 kts 244°
2026-04-28 10:42 40.90302 29.31041 320 ft 13 kts 244°
2026-04-28 10:43 40.90271 29.30957 320 ft 9 kts 244°
2026-04-28 10:43 40.90237 29.30882 320 ft 9 kts 214°
2026-04-28 10:43 40.90172 29.30902 320 ft 10 kts 153°
2026-04-28 10:43 40.90100 29.30930 320 ft 11 kts 188°
2026-04-28 10:44 40.90044 29.30865 320 ft 11 kts 244°
2026-04-28 10:44 40.90008 29.30767 320 ft 12 kts 244°
2026-04-28 10:44 40.89970 29.30665 320 ft 12 kts 243°
2026-04-28 10:44 40.89932 29.30561 320 ft 13 kts 244°
2026-04-28 10:45 40.89891 29.30451 320 ft 13 kts 243°
2026-04-28 10:45 40.89849 29.30338 320 ft 13 kts 244°
2026-04-28 10:45 40.89806 29.30222 320 ft 14 kts 244°
2026-04-28 10:45 40.89761 29.30098 320 ft 17 kts 244°
2026-04-28 10:46 40.89700 29.29934 320 ft 21 kts 244°
2026-04-28 10:46 40.89633 29.29748 320 ft 22 kts 244°
2026-04-28 10:46 40.89568 29.29570 320 ft 21 kts 244°
2026-04-28 10:46 40.89505 29.29399 320 ft 20 kts 243°
2026-04-28 10:47 40.89433 29.29262 320 ft 15 kts 202°
2026-04-28 10:47 40.89359 29.29278 320 ft 3 kts 153°
2026-04-28 10:47 40.89358 29.29278 320 ft 0 kts 153°
2026-04-28 10:48 40.89355 29.29280 320 ft 3 kts 153°
2026-04-28 10:48 40.89299 29.29321 320 ft 10 kts 135°
2026-04-28 10:48 40.89299 29.29416 320 ft 11 kts 64°
2026-04-28 10:48 40.89366 29.29597 320 ft 51 kts 63°
2026-04-28 10:49 40.89634 29.30318 320 ft 121 kts 64°
2026-04-28 10:49 40.90094 29.31565 355 ft 174 kts 63°
2026-04-28 10:49 40.90622 29.32995 991 ft 175 kts 63°
2026-04-28 10:49 40.91133 29.34455 1739 ft 178 kts 64°
2026-04-28 10:50 40.91656 29.35925 2426 ft 184 kts 63°
2026-04-28 10:50 40.92249 29.37509 2927 ft 201 kts 62°
2026-04-28 10:50 40.92900 29.39247 3393 ft 222 kts 63°
2026-04-28 10:50 40.93610 29.41156 3898 ft 242 kts 63°
2026-04-28 10:51 40.94363 29.43199 4693 ft 250 kts 63°
2026-04-28 10:51 40.95131 29.45290 5364 ft 262 kts 63°
2026-04-28 10:51 40.95937 29.47490 6163 ft 268 kts 63°
2026-04-28 10:51 40.96747 29.49704 6999 ft 273 kts 63°
2026-04-28 10:52 40.97574 29.51966 7779 ft 278 kts 63°
2026-04-28 10:52 40.98412 29.54263 8558 ft 282 kts 63°
2026-04-28 10:52 40.99273 29.56620 9336 ft 286 kts 62°
2026-04-28 10:52 41.00274 29.58874 10034 ft 289 kts 46°
2026-04-28 10:53 41.01888 29.60485 10619 ft 296 kts 22°
2026-04-28 10:53 41.03899 29.61099 10992 ft 309 kts 359°
2026-04-28 10:53 41.06083 29.60578 11336 ft 324 kts 342°
2026-04-28 10:53 41.08274 29.59699 11826 ft 335 kts 342°
2026-04-28 10:54 41.10524 29.58820 12544 ft 339 kts 342°
2026-04-28 10:54 41.12804 29.57944 13277 ft 342 kts 342°
2026-04-28 10:54 41.15091 29.57070 13941 ft 346 kts 342°
2026-04-28 10:54 41.17406 29.56190 14610 ft 350 kts 342°
2026-04-28 10:55 41.19649 29.54981 15248 ft 352 kts 325°
2026-04-28 10:55 41.21323 29.52655 15858 ft 353 kts 300°
2026-04-28 10:55 41.22353 29.49723 16591 ft 354 kts 294°
2026-04-28 10:55 41.23398 29.46721 17173 ft 358 kts 295°
2026-04-28 10:56 41.24485 29.43737 17790 ft 361 kts 296°
2026-04-28 10:56 41.25594 29.40758 18410 ft 364 kts 296°
2026-04-28 10:56 41.26734 29.37730 19024 ft 367 kts 296°
2026-04-28 10:56 41.27881 29.34706 19583 ft 370 kts 297°
2026-04-28 10:57 41.29055 29.31620 20169 ft 373 kts 297°
2026-04-28 10:57 41.30215 29.28573 20707 ft 376 kts 297°
2026-04-28 10:57 41.31395 29.25482 21240 ft 378 kts 297°
2026-04-28 10:57 41.32599 29.22324 21779 ft 381 kts 297°
2026-04-28 10:58 41.33787 29.19206 22291 ft 384 kts 297°
2026-04-28 10:58 41.35012 29.15990 22791 ft 387 kts 297°
2026-04-28 10:58 41.36219 29.12817 23293 ft 390 kts 297°
2026-04-28 10:58 41.37447 29.09586 23781 ft 392 kts 297°
2026-04-28 10:59 41.38676 29.06352 24261 ft 395 kts 297°
2026-04-28 10:59 41.39924 29.03063 24715 ft 397 kts 297°
2026-04-28 10:59 41.41167 28.99782 25150 ft 400 kts 297°
2026-04-28 10:59 41.42431 28.96443 25580 ft 402 kts 297°
2026-04-28 11:00 41.43678 28.93145 25990 ft 405 kts 297°
2026-04-28 11:00 41.44948 28.89783 26402 ft 407 kts 298°
2026-04-28 11:00 41.46223 28.86401 26799 ft 409 kts 298°
2026-04-28 11:00 41.47507 28.82995 27176 ft 411 kts 298°
2026-04-28 11:01 41.48779 28.79614 27546 ft 413 kts 298°
2026-04-28 11:01 41.50081 28.76152 27895 ft 415 kts 298°
2026-04-28 11:01 41.51366 28.72729 28239 ft 417 kts 298°
2026-04-28 11:01 41.52657 28.69284 28569 ft 419 kts 298°
2026-04-28 11:02 41.53959 28.65810 28890 ft 421 kts 298°
2026-04-28 11:02 41.55276 28.62287 29216 ft 423 kts 298°
2026-04-28 11:02 41.56582 28.58792 29528 ft 425 kts 298°
2026-04-28 11:02 41.57901 28.55256 29824 ft 426 kts 298°
2026-04-28 11:03 41.59230 28.51693 30121 ft 428 kts 298°
2026-04-28 11:03 41.60552 28.48139 30497 ft 427 kts 298°
2026-04-28 11:03 41.61865 28.44606 30890 ft 426 kts 298°
2026-04-28 11:03 41.63173 28.41083 31286 ft 424 kts 298°
2026-04-28 11:04 41.64477 28.37567 31677 ft 422 kts 298°
2026-04-28 11:04 41.65773 28.34068 32033 ft 421 kts 297°
2026-04-28 11:04 41.67076 28.30547 32356 ft 420 kts 297°
2026-04-28 11:04 41.68361 28.27069 32706 ft 419 kts 297°
2026-04-28 11:05 41.69651 28.23574 33034 ft 417 kts 297°
2026-04-28 11:05 41.70944 28.20066 33342 ft 416 kts 297°
2026-04-28 11:05 41.72211 28.16623 33631 ft 415 kts 297°
2026-04-28 11:05 41.73478 28.13179 33906 ft 414 kts 297°
2026-04-28 11:06 41.74741 28.09738 34181 ft 414 kts 297°
2026-04-28 11:06 41.76016 28.06261 34457 ft 413 kts 297°
2026-04-28 11:06 41.77279 28.02815 34662 ft 413 kts 297°
2026-04-28 11:06 41.78535 27.99381 34856 ft 414 kts 297°
2026-04-28 11:07 41.79814 27.95882 35001 ft 414 kts 298°
2026-04-28 11:07 41.81074 27.92433 35140 ft 415 kts 297°
2026-04-28 11:07 41.82347 27.88944 35284 ft 415 kts 297°
2026-04-28 11:07 41.83611 27.85474 35410 ft 416 kts 297°
2026-04-28 11:08 41.84872 27.82005 35538 ft 417 kts 297°
2026-04-28 11:08 41.86147 27.78494 35676 ft 417 kts 297°
2026-04-28 11:08 41.87406 27.75023 35806 ft 417 kts 297°
2026-04-28 11:08 41.88682 27.71502 35919 ft 418 kts 297°
2026-04-28 11:09 41.89945 27.68011 36036 ft 418 kts 297°
2026-04-28 11:09 41.92492 27.60957 36103 ft 420 kts 297°
2026-04-28 11:10 41.95027 27.53917 36108 ft 419 kts 297°
2026-04-28 11:10 41.97549 27.46896 36104 ft 419 kts 297°
2026-04-28 11:11 42.00087 27.39813 36107 ft 419 kts 297°
2026-04-28 11:11 42.02602 27.32772 36105 ft 419 kts 297°
2026-04-28 11:12 42.05280 27.25838 36103 ft 418 kts 301°
2026-04-28 11:12 42.08472 27.19299 36103 ft 417 kts 307°
2026-04-28 11:13 42.12120 27.13293 36106 ft 416 kts 312°
2026-04-28 11:13 42.15976 27.07482 36102 ft 416 kts 312°
2026-04-28 11:14 42.19864 27.01632 36103 ft 415 kts 312°
2026-04-28 11:14 42.23714 26.95823 36100 ft 415 kts 312°
2026-04-28 11:15 42.27554 26.90016 36100 ft 414 kts 312°
2026-04-28 11:15 42.31358 26.84251 36100 ft 414 kts 312°
2026-04-28 11:16 42.35191 26.78432 36100 ft 414 kts 312°
2026-04-28 11:16 42.39009 26.72622 36100 ft 413 kts 312°
2026-04-28 11:17 42.42832 26.66790 36103 ft 412 kts 312°
2026-04-28 11:17 42.46629 26.60986 36102 ft 412 kts 312°
2026-04-28 11:18 42.50304 26.55045 36102 ft 412 kts 308°
2026-04-28 11:18 42.53444 26.48548 36103 ft 413 kts 301°
2026-04-28 11:19 42.55958 26.41573 36104 ft 414 kts 294°
2026-04-28 11:19 42.57873 26.34238 36107 ft 414 kts 290°
2026-04-28 11:20 42.59642 26.26832 36107 ft 414 kts 290°
2026-04-28 11:20 42.61412 26.19392 36105 ft 413 kts 290°
2026-04-28 11:21 42.63159 26.12023 36100 ft 414 kts 290°
2026-04-28 11:21 42.64917 26.04582 36098 ft 413 kts 290°
2026-04-28 11:22 42.66666 25.97157 36092 ft 412 kts 290°
2026-04-28 11:22 42.68406 25.89753 36084 ft 412 kts 290°
2026-04-28 11:23 42.70133 25.82371 36079 ft 412 kts 290°
2026-04-28 11:23 42.71665 25.75807 36077 ft 411 kts 290°
2026-04-28 11:23 42.72116 25.73914 35909 ft 411 kts 288°
2026-04-28 11:24 42.72989 25.70199 35989 ft 413 kts 288°
2026-04-28 11:24 42.74731 25.62690 36041 ft 420 kts 288°
2026-04-28 11:25 42.76512 25.55097 36106 ft 421 kts 289°
2026-04-28 11:25 42.78265 25.47566 36131 ft 414 kts 290°
2026-04-28 11:26 42.79987 25.40163 36098 ft 408 kts 290°
2026-04-28 11:26 42.81694 25.32809 36085 ft 408 kts 289°
2026-04-28 11:27 42.83390 25.25473 36081 ft 408 kts 289°
2026-04-28 11:27 42.85092 25.18076 36083 ft 408 kts 289°
2026-04-28 11:28 42.86777 25.10719 36081 ft 409 kts 289°
2026-04-28 11:28 42.88465 25.03321 36082 ft 408 kts 289°
2026-04-28 11:29 42.90134 24.95984 36082 ft 408 kts 289°
2026-04-28 11:29 42.91811 24.88593 36081 ft 407 kts 289°
2026-04-28 11:30 42.93478 24.81213 36082 ft 407 kts 289°
2026-04-28 11:30 42.95957 24.70186 36082 ft 407 kts 289°
2026-04-28 11:31 42.97605 24.62827 36082 ft 407 kts 290°
2026-04-28 11:31 42.99252 24.55454 36080 ft 406 kts 290°
2026-04-28 11:32 43.00893 24.48083 36076 ft 406 kts 289°
2026-04-28 11:32 43.02528 24.40705 36078 ft 406 kts 289°
2026-04-28 11:33 43.04155 24.33341 36082 ft 406 kts 289°
2026-04-28 11:33 43.05758 24.26065 36081 ft 406 kts 289°
2026-04-28 11:34 43.07370 24.18725 36079 ft 405 kts 289°
2026-04-28 11:34 43.08985 24.11343 36077 ft 405 kts 289°
2026-04-28 11:35 43.10596 24.03946 36076 ft 405 kts 289°
2026-04-28 11:35 43.12205 23.96538 36077 ft 404 kts 289°
2026-04-28 11:36 43.13807 23.89148 36077 ft 403 kts 289°
2026-04-28 11:36 43.15396 23.81787 36075 ft 403 kts 289°
2026-04-28 11:37 43.16965 23.74477 36075 ft 403 kts 289°
2026-04-28 11:37 43.18543 23.67114 36075 ft 403 kts 289°
2026-04-28 11:38 43.20112 23.59763 36075 ft 403 kts 289°
2026-04-28 11:38 43.21675 23.52416 36074 ft 402 kts 289°
2026-04-28 11:39 43.23224 23.45108 36072 ft 402 kts 289°
2026-04-28 11:39 43.24773 23.37773 36071 ft 401 kts 289°
2026-04-28 11:40 43.26324 23.30401 36072 ft 402 kts 288°
2026-04-28 11:40 43.27871 23.23026 36072 ft 402 kts 288°
2026-04-28 11:41 43.29406 23.15681 36076 ft 402 kts 288°
2026-04-28 11:41 43.30944 23.08285 36081 ft 402 kts 288°
2026-04-28 11:42 43.32470 23.00932 36086 ft 401 kts 288°
2026-04-28 11:42 43.33991 22.93569 36084 ft 400 kts 288°
2026-04-28 11:43 43.35514 22.86167 36079 ft 400 kts 288°
2026-04-28 11:43 43.37022 22.78816 36080 ft 400 kts 288°
2026-04-28 11:44 43.38771 22.71547 36081 ft 400 kts 291°
2026-04-28 11:44 43.40595 22.64343 36082 ft 400 kts 291°
2026-04-28 11:45 43.42418 22.57117 36083 ft 401 kts 291°
2026-04-28 11:45 43.44239 22.49874 36083 ft 400 kts 291°
2026-04-28 11:46 43.46053 22.42629 36081 ft 401 kts 291°
2026-04-28 11:46 43.47852 22.35425 36082 ft 401 kts 291°
2026-04-28 11:47 43.49668 22.28124 36081 ft 400 kts 290°
2026-04-28 11:47 43.51412 22.21098 36081 ft 400 kts 290°
2026-04-28 11:48 43.53207 22.13839 36079 ft 401 kts 290°
2026-04-28 11:48 43.55006 22.06543 36083 ft 401 kts 290°
2026-04-28 11:49 43.56797 21.99256 36082 ft 401 kts 290°
2026-04-28 11:49 43.58575 21.91993 36084 ft 401 kts 290°
2026-04-28 11:50 43.60352 21.84720 36081 ft 401 kts 290°
2026-04-28 11:50 43.62120 21.77459 36078 ft 401 kts 290°
2026-04-28 11:51 43.63892 21.70158 36078 ft 401 kts 290°
2026-04-28 11:51 43.65642 21.62923 36076 ft 400 kts 290°
2026-04-28 11:52 43.67408 21.55604 36073 ft 400 kts 290°
2026-04-28 11:52 43.69144 21.48376 36072 ft 400 kts 290°
2026-04-28 11:53 43.70896 21.41060 36073 ft 399 kts 290°
2026-04-28 11:53 43.72633 21.33788 36074 ft 399 kts 289°
2026-04-28 11:54 43.74377 21.26458 36073 ft 400 kts 289°
2026-04-28 11:54 43.76103 21.19184 36078 ft 400 kts 289°
2026-04-28 11:55 43.77836 21.11859 36084 ft 399 kts 289°
2026-04-28 11:55 43.79553 21.04568 36089 ft 400 kts 289°
2026-04-28 11:56 43.81273 20.97251 36095 ft 399 kts 289°
2026-04-28 11:56 43.82985 20.89936 36093 ft 400 kts 289°
2026-04-28 11:57 43.84696 20.82602 36095 ft 399 kts 289°
2026-04-28 11:57 43.86399 20.75280 36096 ft 399 kts 289°
2026-04-28 11:58 43.88080 20.68029 36099 ft 399 kts 289°
2026-04-28 11:58 43.89778 20.60680 36095 ft 399 kts 289°
2026-04-28 11:59 43.91470 20.53336 36093 ft 399 kts 289°
2026-04-28 11:59 43.93154 20.45994 36089 ft 399 kts 289°
2026-04-28 12:00 43.94823 20.38697 36095 ft 399 kts 289°
2026-04-28 12:00 43.96514 20.31274 36091 ft 400 kts 289°
2026-04-28 12:01 43.98182 20.23935 36099 ft 399 kts 289°
2026-04-28 12:01 43.99847 20.16584 36095 ft 398 kts 289°
2026-04-28 12:02 44.01498 20.09267 36092 ft 398 kts 289°
2026-04-28 12:02 44.03152 20.01916 36096 ft 398 kts 289°
2026-04-28 12:03 44.04803 19.94547 36096 ft 398 kts 289°
2026-04-28 12:03 44.06448 19.87190 36098 ft 398 kts 289°
2026-04-28 12:04 44.08073 19.79884 36097 ft 398 kts 288°
2026-04-28 12:04 44.09705 19.72531 36100 ft 399 kts 289°
2026-04-28 12:05 44.11366 19.65020 36100 ft 399 kts 288°
2026-04-28 12:05 44.12987 19.57652 36097 ft 398 kts 289°
2026-04-28 12:06 44.14603 19.50293 36089 ft 399 kts 289°
2026-04-28 12:06 44.16225 19.42880 36096 ft 399 kts 289°
2026-04-28 12:07 44.17834 19.35497 36095 ft 400 kts 289°
2026-04-28 12:07 44.19445 19.28073 36092 ft 400 kts 288°
2026-04-28 12:08 44.21050 19.20674 36091 ft 400 kts 288°
2026-04-28 12:08 44.22650 19.13258 36091 ft 400 kts 288°
2026-04-28 12:09 44.24117 19.06427 36086 ft 400 kts 288°
2026-04-28 12:09 44.25710 18.98993 36093 ft 401 kts 288°
2026-04-28 12:10 44.27303 18.91528 36095 ft 400 kts 288°
2026-04-28 12:10 44.28886 18.84087 36092 ft 400 kts 288°
2026-04-28 12:11 44.30466 18.76630 36090 ft 400 kts 288°
2026-04-28 12:11 44.32041 18.69177 36087 ft 400 kts 288°
2026-04-28 12:12 44.33598 18.61776 36094 ft 400 kts 288°
2026-04-28 12:12 44.35160 18.54328 36093 ft 400 kts 288°
2026-04-28 12:13 44.36722 18.46847 36090 ft 400 kts 288°
2026-04-28 12:13 44.38268 18.39420 36088 ft 401 kts 288°
2026-04-28 12:14 44.39823 18.31920 36091 ft 401 kts 287°
2026-04-28 12:14 44.41367 18.24451 36091 ft 400 kts 287°
2026-04-28 12:15 44.42907 18.16970 36090 ft 400 kts 287°
2026-04-28 12:15 44.44437 18.09510 36086 ft 400 kts 287°
2026-04-28 12:16 44.45959 18.02060 36081 ft 400 kts 287°
2026-04-28 12:16 44.47485 17.94564 36085 ft 399 kts 287°
2026-04-28 12:17 44.48453 17.89793 36086 ft 400 kts 287°
2026-04-28 12:17 44.49783 17.83216 36088 ft 397 kts 287°
2026-04-28 12:18 44.51290 17.75750 36090 ft 398 kts 287°
2026-04-28 12:18 44.52778 17.68343 36088 ft 398 kts 287°
2026-04-28 12:19 44.54277 17.60863 36086 ft 400 kts 287°
2026-04-28 12:19 44.55767 17.53387 36082 ft 400 kts 287°
2026-04-28 12:20 44.57252 17.45914 36089 ft 399 kts 287°
2026-04-28 12:20 44.58740 17.38393 36089 ft 400 kts 287°
2026-04-28 12:21 44.60219 17.30891 36090 ft 400 kts 286°
2026-04-28 12:21 44.61641 17.23646 36094 ft 400 kts 286°
2026-04-28 12:22 44.63105 17.16163 36093 ft 399 kts 286°
2026-04-28 12:22 44.64491 17.09048 36090 ft 399 kts 286°
2026-04-28 12:23 44.65956 17.01512 36086 ft 400 kts 286°
2026-04-28 12:23 44.67408 16.94007 36081 ft 401 kts 286°
2026-04-28 12:24 44.68859 16.86479 36085 ft 401 kts 286°
2026-04-28 12:24 44.70315 16.78891 36070 ft 401 kts 286°
2026-04-28 12:25 44.71754 16.71362 36074 ft 401 kts 286°
2026-04-28 12:25 44.73192 16.63810 36296 ft 401 kts 286°
2026-04-28 12:26 44.73918 16.59985 36510 ft 400 kts 286°
2026-04-28 12:26 44.74624 16.56260 36679 ft 399 kts 286°
2026-04-28 12:26 44.75343 16.52462 36842 ft 399 kts 286°
2026-04-28 12:26 44.76046 16.48734 37022 ft 398 kts 286°
2026-04-28 12:27 44.76755 16.44966 37207 ft 398 kts 286°
2026-04-28 12:27 44.77464 16.41196 37402 ft 397 kts 286°
2026-04-28 12:27 44.78160 16.37483 37584 ft 397 kts 286°
2026-04-28 12:27 44.78867 16.33714 37748 ft 396 kts 285°
2026-04-28 12:28 44.79566 16.29965 37921 ft 396 kts 285°
2026-04-28 12:28 44.80273 16.26176 38063 ft 396 kts 285°
2026-04-28 12:28 44.81667 16.18683 38064 ft 396 kts 285°
2026-04-28 12:29 44.83748 16.07433 38066 ft 397 kts 285°
2026-04-28 12:30 44.85136 15.99895 38059 ft 397 kts 285°
2026-04-28 12:30 44.86512 15.92391 38057 ft 396 kts 285°
2026-04-28 12:31 44.87880 15.84895 38056 ft 396 kts 285°
2026-04-28 12:31 44.89245 15.77391 38054 ft 397 kts 285°
2026-04-28 12:32 44.90606 15.69881 38057 ft 397 kts 285°
2026-04-28 12:32 44.91966 15.62334 38060 ft 397 kts 285°
2026-04-28 12:33 44.93321 15.54790 38059 ft 397 kts 285°
2026-04-28 12:33 44.94674 15.47225 38063 ft 397 kts 285°
2026-04-28 12:34 44.96015 15.39701 38057 ft 398 kts 285°
2026-04-28 12:34 44.97357 15.32132 38062 ft 398 kts 285°
2026-04-28 12:35 44.98698 15.24537 38061 ft 398 kts 284°
2026-04-28 12:35 45.00029 15.16978 38062 ft 398 kts 284°
2026-04-28 12:36 45.01364 15.09349 38068 ft 398 kts 285°
2026-04-28 12:36 45.02685 15.01778 38066 ft 398 kts 285°
2026-04-28 12:37 45.04001 14.94204 38065 ft 398 kts 285°
2026-04-28 12:37 45.05315 14.86598 38065 ft 399 kts 285°
2026-04-28 12:38 45.06622 14.79010 38059 ft 399 kts 285°
2026-04-28 12:38 45.07925 14.71412 38058 ft 400 kts 285°
2026-04-28 12:39 45.09225 14.63798 38049 ft 399 kts 285°
2026-04-28 12:39 45.10530 14.56123 38036 ft 399 kts 284°
2026-04-28 12:40 45.11812 14.48539 38021 ft 399 kts 284°
2026-04-28 12:40 45.12985 14.41587 38023 ft 399 kts 284°
2026-04-28 12:41 45.14278 14.33871 38026 ft 399 kts 284°
2026-04-28 12:41 45.15511 14.26488 38028 ft 400 kts 284°
2026-04-28 12:42 45.16787 14.18825 38032 ft 399 kts 284°
2026-04-28 12:42 45.18042 14.11247 38030 ft 399 kts 284°
2026-04-28 12:43 45.19311 14.03544 38035 ft 400 kts 284°
2026-04-28 12:43 45.20564 13.95908 38035 ft 400 kts 284°
2026-04-28 12:44 45.21814 13.88260 38033 ft 400 kts 284°
2026-04-28 12:44 45.23065 13.80570 38033 ft 400 kts 284°
2026-04-28 12:45 45.24304 13.72919 38033 ft 400 kts 284°
2026-04-28 12:45 45.25545 13.65214 38031 ft 400 kts 284°
2026-04-28 12:46 45.26770 13.57579 38027 ft 400 kts 284°
2026-04-28 12:46 45.28003 13.49851 38020 ft 399 kts 284°
2026-04-28 12:47 45.29219 13.42208 38016 ft 399 kts 283°
2026-04-28 12:47 45.30424 13.34585 38017 ft 400 kts 283°
2026-04-28 12:48 45.31640 13.26866 38012 ft 400 kts 283°
2026-04-28 12:48 45.32845 13.19168 38015 ft 400 kts 283°
2026-04-28 12:49 45.34049 13.11456 38014 ft 400 kts 283°
2026-04-28 12:49 45.35245 13.03749 38015 ft 400 kts 283°
2026-04-28 12:50 45.36437 12.96040 38010 ft 400 kts 283°
2026-04-28 12:50 45.37619 12.88356 38011 ft 400 kts 283°
2026-04-28 12:51 45.38797 12.80656 38014 ft 400 kts 283°
2026-04-28 12:51 45.39974 12.72931 38011 ft 400 kts 283°
2026-04-28 12:52 45.41142 12.65220 38009 ft 399 kts 283°
2026-04-28 12:52 45.42305 12.57508 38011 ft 400 kts 283°
2026-04-28 12:53 45.43465 12.49781 38012 ft 400 kts 283°
2026-04-28 12:53 45.44615 12.42076 38013 ft 401 kts 283°
2026-04-28 12:54 45.45765 12.34334 38017 ft 401 kts 282°
2026-04-28 12:54 45.46912 12.26580 38014 ft 401 kts 282°
2026-04-28 12:55 45.48058 12.18799 38013 ft 402 kts 282°
2026-04-28 12:55 45.49195 12.11032 38016 ft 402 kts 282°
2026-04-28 12:56 45.50331 12.03233 38015 ft 401 kts 282°
2026-04-28 12:56 45.51453 11.95488 38015 ft 401 kts 282°
2026-04-28 12:57 45.52573 11.87715 38014 ft 400 kts 282°
2026-04-28 12:57 45.53680 11.80001 38012 ft 400 kts 282°
2026-04-28 12:58 45.54787 11.72242 38011 ft 400 kts 282°
2026-04-28 12:58 45.55888 11.64492 38015 ft 401 kts 282°
2026-04-28 12:59 45.56987 11.56703 38019 ft 400 kts 282°
2026-04-28 12:59 45.58079 11.48925 38016 ft 401 kts 282°
2026-04-28 13:00 45.59164 11.41168 38019 ft 401 kts 282°
2026-04-28 13:00 45.60238 11.33441 38025 ft 401 kts 281°
2026-04-28 13:01 45.61325 11.25577 38025 ft 401 kts 281°
2026-04-28 13:01 45.62384 11.17865 38029 ft 401 kts 282°
2026-04-28 13:02 45.63452 11.10045 38037 ft 402 kts 282°
2026-04-28 13:02 45.64519 11.02215 38040 ft 401 kts 282°
2026-04-28 13:03 45.65734 10.94449 38038 ft 402 kts 283°
2026-04-28 13:03 45.66977 10.86706 38035 ft 401 kts 283°
2026-04-28 13:04 45.68212 10.78898 38036 ft 401 kts 283°
2026-04-28 13:04 45.69428 10.71152 38025 ft 401 kts 283°
2026-04-28 13:05 45.70633 10.63419 38030 ft 401 kts 283°
2026-04-28 13:05 45.71835 10.55661 38046 ft 401 kts 283°
2026-04-28 13:06 45.73032 10.47894 38059 ft 400 kts 283°
2026-04-28 13:06 45.74221 10.40137 38062 ft 400 kts 283°
2026-04-28 13:07 45.75402 10.32398 38070 ft 400 kts 282°
2026-04-28 13:07 45.76581 10.24639 38072 ft 400 kts 282°
2026-04-28 13:08 45.77724 10.17071 38076 ft 399 kts 282°
2026-04-28 13:08 45.78894 10.09299 38091 ft 399 kts 282°
2026-04-28 13:09 45.80053 10.01550 38095 ft 400 kts 282°
2026-04-28 13:09 45.81219 9.93725 38094 ft 400 kts 282°
2026-04-28 13:10 45.82374 9.85930 38087 ft 401 kts 282°
2026-04-28 13:10 45.83522 9.78146 38083 ft 400 kts 282°
2026-04-28 13:11 45.84669 9.70331 38074 ft 401 kts 282°
2026-04-28 13:11 45.85804 9.62546 38079 ft 400 kts 282°
2026-04-28 13:12 45.86927 9.54802 38082 ft 400 kts 282°
2026-04-28 13:12 45.88060 9.46958 38071 ft 399 kts 282°
2026-04-28 13:13 45.89176 9.39190 38073 ft 400 kts 282°
2026-04-28 13:13 45.90288 9.31418 38062 ft 400 kts 281°
2026-04-28 13:14 45.91404 9.23572 38040 ft 400 kts 281°
2026-04-28 13:14 45.92513 9.15739 38045 ft 401 kts 281°
2026-04-28 13:15 45.93613 9.07925 38030 ft 401 kts 281°
2026-04-28 13:15 45.94708 9.00106 38038 ft 401 kts 281°
2026-04-28 13:16 45.95802 8.92255 38040 ft 402 kts 281°
2026-04-28 13:16 45.96890 8.84398 38034 ft 402 kts 281°
2026-04-28 13:17 45.97975 8.76525 38037 ft 401 kts 281°
2026-04-28 13:17 45.99047 8.68704 38040 ft 400 kts 281°
2026-04-28 13:18 46.00112 8.60904 38048 ft 400 kts 281°
2026-04-28 13:18 46.01175 8.53065 38057 ft 400 kts 281°
2026-04-28 13:19 46.02236 8.45205 38079 ft 400 kts 281°
2026-04-28 13:19 46.03291 8.37334 38088 ft 400 kts 281°
2026-04-28 13:20 46.04327 8.29546 38104 ft 401 kts 280°
2026-04-28 13:20 46.05342 8.21883 38117 ft 400 kts 280°
2026-04-28 13:21 46.06374 8.14045 38130 ft 401 kts 280°
2026-04-28 13:21 46.07601 8.06285 38121 ft 401 kts 285°
2026-04-28 13:22 46.09357 7.98724 38116 ft 401 kts 290°
2026-04-28 13:22 46.11584 7.91509 38118 ft 403 kts 293°
2026-04-28 13:23 46.13949 7.84394 38110 ft 402 kts 294°
2026-04-28 13:23 46.16891 7.75541 38104 ft 401 kts 294°
2026-04-28 13:24 46.19196 7.68588 38100 ft 401 kts 294°
2026-04-28 13:24 46.21597 7.61323 38106 ft 401 kts 294°
2026-04-28 13:25 46.23964 7.54141 38104 ft 401 kts 294°
2026-04-28 13:25 46.26356 7.46862 38070 ft 402 kts 294°
2026-04-28 13:26 46.28750 7.39555 38059 ft 402 kts 293°
2026-04-28 13:26 46.31112 7.32322 38057 ft 403 kts 293°
2026-04-28 13:27 46.33244 7.25779 38066 ft 402 kts 293°
2026-04-28 13:27 46.35783 7.17966 38064 ft 402 kts 292°
2026-04-28 13:28 46.38123 7.10739 38064 ft 402 kts 292°
2026-04-28 13:28 46.40469 7.03481 38067 ft 402 kts 292°
2026-04-28 13:29 46.42796 6.96251 38063 ft 401 kts 292°
2026-04-28 13:29 46.45138 6.88961 38057 ft 401 kts 292°
2026-04-28 13:30 46.47441 6.81774 38050 ft 402 kts 292°
2026-04-28 13:30 46.49812 6.74350 38030 ft 402 kts 292°
2026-04-28 13:31 46.53318 6.63333 38008 ft 403 kts 292°
2026-04-28 13:31 46.55659 6.55948 37996 ft 403 kts 292°
2026-04-28 13:32 46.58003 6.48531 37994 ft 404 kts 292°
2026-04-28 13:32 46.60322 6.41176 37993 ft 404 kts 292°
2026-04-28 13:33 46.62611 6.33896 37994 ft 403 kts 291°
2026-04-28 13:33 46.64928 6.26497 37999 ft 404 kts 291°
2026-04-28 13:34 46.67184 6.19277 37991 ft 403 kts 291°
2026-04-28 13:34 46.69487 6.11888 37994 ft 404 kts 291°
2026-04-28 13:35 46.71795 6.04451 37995 ft 404 kts 291°
2026-04-28 13:35 46.74087 5.97049 37987 ft 404 kts 291°
2026-04-28 13:36 46.76392 5.89574 37991 ft 405 kts 291°
2026-04-28 13:36 46.78751 5.82166 37982 ft 407 kts 294°
2026-04-28 13:37 46.81652 5.75017 37983 ft 410 kts 300°
2026-04-28 13:37 46.85105 5.68413 37980 ft 413 kts 307°
2026-04-28 13:38 46.89100 5.62379 37976 ft 416 kts 312°
2026-04-28 13:38 46.90002 5.61130 37975 ft 417 kts 312°
2026-04-28 13:39 46.93608 5.56180 37979 ft 417 kts 312°
2026-04-28 13:39 46.97814 5.50404 37983 ft 417 kts 312°
2026-04-28 13:40 47.02051 5.44571 37976 ft 418 kts 312°
2026-04-28 13:40 47.06267 5.38746 37991 ft 419 kts 312°
2026-04-28 13:41 47.10359 5.33077 37833 ft 420 kts 311°
2026-04-28 13:41 47.12485 5.30130 37567 ft 418 kts 311°
2026-04-28 13:41 47.14525 5.27301 37264 ft 414 kts 311°
2026-04-28 13:42 47.15083 5.26528 37173 ft 413 kts 311°